This is the latest recevied weather packets stored in our database for station/object F1ZVN-13. If no packets are shown the sender has not sent any weather packets the latest 1 day(s).
| Time | Temp. | Humidity | Pressure | Rain* | Wind** | Luminosity | Snow |
|---|---|---|---|---|---|---|---|
| 1778070676 | 4.44° C | 83% | 1001.3 hPa | 0 mm | 0 m/s | - | - |
| 1778070433 | 4.44° C | 84% | 1001.3 hPa | 0 mm | 0 m/s | - | - |
| 1778070191 | 5° C | 84% | 1001.3 hPa | 0 mm | 0 m/s | - | - |
| 1778069224 | 3.89° C | 87% | 1001.1 hPa | 0 mm | 0 m/s | - | - |
| 1778068980 | 3.89° C | 88% | 1001.1 hPa | 0 mm | 0 m/s | - | - |
| 1778068618 | 3.89° C | 88% | 1001.1 hPa | 0 mm | 0 m/s | - | - |
| 1778067887 | 3.89° C | 85% | 1001.1 hPa | 0 mm | 0 m/s | - | - |
| 1778067769 | 4.44° C | 86% | 1001.1 hPa | 0 mm | 0 m/s | - | - |
| 1778067768 | 4.44° C | 86% | 1001.1 hPa | 0 mm | 0 m/s | - | - |
| 1778067289 | 5° C | 88% | 1001.1 hPa | 0 mm | 0 m/s | - | - |
| 1778066918 | 3.33° C | 87% | 1001.1 hPa | 0 mm | 0 m/s | - | - |
| 1778066555 | 3.33° C | 86% | 1001.1 hPa | 0 mm | 0 m/s | - | - |
| 1778066190 | 4.44° C | 90% | 1001.1 hPa | 0 mm | 0 m/s | - | - |
| 1778065586 | 3.33° C | 91% | 1001.3 hPa | 0 mm | 0 m/s | - | - |
| 1778065225 | 3.33° C | 90% | 1001.3 hPa | 0 mm | 0 m/s | - | - |
| 1778065101 | 3.33° C | 90% | 1001.3 hPa | 0 mm | 0 m/s | - | - |
| 1778064716 | 3.89° C | 92% | 1001.4 hPa | 0 mm | 0 m/s | - | - |
| 1778064619 | 3.89° C | 89% | 1001.3 hPa | 0 mm | 0 m/s | - | - |
| 1778063809 | 3.89° C | 94% | 1001.4 hPa | 0 mm | 0 m/s | - | - |
| 1778063646 | 3.89° C | 95% | 1001.3 hPa | 0 mm | 0 m/s | - | - |
| 1778062795 | 2.78° C | 95% | 1001.3 hPa | 0 mm | 0 m/s | - | - |
| 1778061824 | 2.78° C | 94% | 1001.3 hPa | 0 mm | 0 m/s | - | - |
| 1778061463 | 2.22° C | 96% | 1001.3 hPa | 0 mm | 0 m/s | - | - |
| 1778061340 | 2.22° C | 96% | 1001.3 hPa | 0 mm | 0 m/s | - | - |
| 1778060368 | 1.67° C | 92% | 1001 hPa | 0 mm | 0 m/s | - | - |
* Rain latest hour (hover to see other rain measurements)
** Current wind speed in m/s (hover to see current wind gust speed)